Tracking 30074 objects as of 13-Jan-2025
HD Live streaming from Space Station
objects crossing your sky now

PORCUPINE 1

Track PORCUPINE 1 now!
10-day predictions
PORCUPINE 1 is classified as:


NORAD ID: 1272
Int'l Code: 1965-016H
Perigee: 906.1 km
Apogee: 934.3 km
Inclination: 70.1 °
Period: 103.3 minutes
Semi major axis: 7291 km
RCS: 0.248 m2 (medium)
Launch date: March 9, 1965
Source: United States (US)
Launch site: AIR FORCE WESTERN TEST RANGE (AFWTR)
Your satellite tracking list
Your tracking list is empty




NASA's NSSDC Master Catalog

Two Line Element Set (TLE):
1  1272U 65016H   25012.81964161  .00000032  00000-0  62966-4 0  9994
2  1272  70.0793 275.0545 0019373  84.7543 275.5773 13.94451420 44313
Source of the keplerian elements: AFSPC